Regional Weather Roundup
Issued by NWS Sterling, VA

Home | Current Version | Previous Version | Graphics & Text | Print | Product List | Glossary On
Versions: 1 2 3 4 5 6 7 8 9 10 11 12 13 14 15 16 17 18 19 20 21 22 23 24 25 26 27 28 29 30 31 32 33 34 35 36 37 38 39 40 41 42 43 44 45 46 47 48 49 50
000
ASUS41 KLWX 261810
RWRLWX

REGIONAL WEATHER ROUNDUP
NATIONAL WEATHER SERVICE BALTIMORE MD/WASHINGTON DC
100 PM EST THU FEB 26 2015

Note: "FAIR" indicates few or no clouds below 12,000 feet
with no significant weather and/or obstructions to visibility.
 TC=TEMPERATURE CELSIUS

 * =Non NWS site. Station does not report precipitation (e.g. rain,
    snow, etc.), thunder, or fog.

DCZ001-MDZ009-015-VAZ040>042-051-053>054-261900-
WASHINGTON METRO

CITY           SKY/WX    TMP DP  RH WIND       PRES   REMARKS
WASHINGTON NAT CLOUDY    35  24  64 NE8       29.90F WCI  29
DULLES         CLOUDY    31  23  72 N9        29.90F WCI  23
ANDREWS AFB    CLOUDY    32  25  74 N10       29.88S WCI  24
FT BELVOIR     CLOUDY    36  25  64 VRB7      29.91F
QUANTICO       CLOUDY    35  25  66 NE8       29.92F WCI  29
COLLEGE PARK*  CLOUDY    34  27  75 N6        29.90F
LEESBURG*      CLOUDY    32  27  80 N12       29.92S WCI  23
GAITHERSBURG*  CLOUDY    32  21  64 N5        29.92F

$$

MDZ006>007-011-014-261900-
BALTIMORE METRO

CITY           SKY/WX    TMP DP  RH WIND       PRES   REMARKS
BWI AIRPORT    CLOUDY    32  21  64 N8        29.89F WCI  25
MD SCIENCE CTR   N/A     31  20  63 MISG      29.91S
MARTIN STATE   PTSUNNY   34  21  60 N8        29.92F WCI  27
ANNAPOLIS      CLOUDY    32  23  69 NW14      29.89F WCI  22
FORT MEADE*    CLOUDY    32  25  74 NW7       29.92F

$$

MDZ012-015-019>023-261900-
MARYLAND EASTERN SHORE

CITY           SKY/WX    TMP DP  RH WIND       PRES   REMARKS
OCEAN CITY     MIX PCPN  29  25  85 NE22G30   29.83R WCI  15
SALISBURY      CLOUDY    32  25  75 N12       29.84S WCI  23
BAY BRIDGE AP*   N/A     32  21  64 N13G20    29.89F WCI  22
CAMBRIDGE*     CLOUDY    34  28  80 N8        29.86S WCI  27
EASTON*        CLOUDY    34  28  80 NE10      29.91S WCI  26

$$

MDZ017>025-261900-
SOUTHERN MARYLAND

CITY           SKY/WX    TMP DP  RH WIND       PRES   REMARKS
PATUXENT RIVER CLOUDY    30  25  81 N14       29.88R WCI  19
ST INIGOES     CLOUDY    32  25  75 N8G16     29.87R HAZE    WCI  25
LEONARDTOWN*   CLOUDY    30  27  86 N5        29.88F

$$

MDZ003>005-261900-
NORTH CENTRAL MARYLAND

CITY           SKY/WX    TMP DP  RH WIND       PRES   REMARKS
FREDERICK*     MOSUNNY   32  14  47 N7        29.95F
HAGERSTOWN APT SUNNY     31  19  61 N9        29.91F WCI  23
WESTMINSTER*   MOSUNNY   28  18  64 N5        29.88F

$$

MDZ501>502-261900-
WESTERN MARYLAND

CITY           SKY/WX    TMP DP  RH WIND       PRES   REMARKS
OAKLAND*       CLOUDY    27  19  74 CALM      29.78R
CUMBERLAND*    CLOUDY    34  23  64 CALM      29.95R

$$

VAZ025>031-261900-
SHENANDOAH VALLEY

CITY           SKY/WX    TMP DP  RH WIND       PRES   REMARKS
WINCHESTER*    CLOUDY    32  21  64 CALM      29.90F
FRONT ROYAL*   CLOUDY    30  25  80 N3        29.89S
LURAY*         CLOUDY    34  28  80 N9        29.89R WCI  26
NEW MARKET*    CLOUDY    32  24  72 N8        29.89R WCI  24
STAUNTON*      CLOUDY    34  24  67 NE3       29.89R
WAYNESBORO*    CLOUDY    31  25  77 CALM      29.86R

$$

WVZ021-048>050-054>055-261900-
EASTERN WEST VIRGINIA PANHANDLE

CITY           SKY/WX    TMP DP  RH WIND       PRES   REMARKS
MARTINSBURG    CLOUDY    31  21  66 N9        29.92S WCI  23
PETERSBURG*    NOT AVBL

$$

VAZ036>039-050-261900-
CENTRAL FOOTHILLS

CITY           SKY/WX    TMP DP  RH WIND       PRES   REMARKS
CHARLOTTESVILL CLOUDY    34  24  67 NE7       29.89R
CULPEPER*      PTSUNNY   34  27  75 N5        29.91R
ORANGE*        CLOUDY    34  28  80 NW6       29.92R
GORDONSVILLE*  CLOUDY    32  25  74 N6        29.90S
WARRENTON*     CLOUDY    35  31  85 NE7       29.90S

$$

VAZ055>057-261900-
NORTH AND CENTRAL PIEDMONT

CITY           SKY/WX    TMP DP  RH WIND       PRES   REMARKS
FREDERICKSBRG* CLOUDY    37  28  70 N6        29.89S
STAFFORD*      CLOUDY    34  25  68 N6        29.93S

$$

NCZ024-NYZ072-PAZ021-071-VAZ022-071-261900-
OTHER REGIONAL OBSERVATIONS

CITY           SKY/WX    TMP DP  RH WIND       PRES   REMARKS
NEW YORK CITY  PTSUNNY   26  15  63 VRB7      29.95F
PHILADELPHIA   PTSUNNY   31  14  49 NE16G25   29.91F WCI  20
PITTSBURGH     FLURRIES  21  12  68 N12       29.94R WCI   9
ROANOKE        PTSUNNY   36  25  64 CALM      29.89S
RICHMOND       CLOUDY    35  27  72 N14       29.88R WCI  26
RALEIGH        CLOUDY    34  28  79 N7        29.88S

$$

ANZ530>537-261900-
MARINE OBSERVATIONS

STATION/POSITION TIME  TEMP    WIND        PRES
                       AIR SEA DIR/SP/G
                 (UTC) (F)     (DEG/KT/KT) (MB)
THOMAS PT LIGHT  1800   29 31   20/ 14/ 16 1013.0S
BALT KEY BRIDGE  1700   29     360/ 11/ 12 1012.8F
COVE POINT       1700   27      20/ 20/ 23 1011.4F
LEWISETTA        1700   30 32   10/  7/ 13 1010.9R
SOLOMONS ISLAND  1700      33                N/A

$$




USA.gov is the U.S. government's official web portal to all federal, state and local government web resources and services.